Regional Weather Roundup
Issued by NWS

Home | Current Version | Previous Version | Graphics & Text | Print | Product List | Glossary On
Versions: 1 2 3 4 5 6 7 8 9 10 11 12 13 14 15 16 17 18 19 20 21 22 23 24 25 26 27 28 29 30 31 32 33 34 35 36 37 38 39 40 41 42 43 44 45 46 47 48 49 50
000
ASUS45 KBOU 030010
RWRCO

WEATHER ROUNDUP FOR COLORADO
NATIONAL WEATHER SERVICE DENVER/BOULDER CO
600 PM MDT SUN AUG 02 2015

NOTE: "FAIR" INDICATES FEW OR NO CLOUDS BELOW 12000 FEET WITH NO
SIGNIFICANT WEATHER AND/OR OBSTRUCTIONS TO VISIBILITY.

COZ001>005-013-030-031-030100-
...NORTHWEST COLORADO...

CITY           SKY/WX    TMP DP  RH WIND       PRES   REMARKS
CRAIG          CLOUDY    84  46  26 SW9       30.07F
HAYDEN         CLOUDY    82  43  24 W14       30.10R
MEEKER         CLOUDY    80  45  28 SW5       30.11S
MOUNT WERNER   NOT AVBL
STEAMBOAT SPGS CLOUDY    73  46  38 NE17G25   30.15R
WALDEN         PTSUNNY   72  37  28 S15       30.27R
$$

COZ006>008-011-030100-
...WEST CENTRAL VALLEYS...

CITY           SKY/WX    TMP DP  RH WIND       PRES   REMARKS
GRAND JUNCTION CLOUDY    78  53  41 SE6       30.05S
MONTROSE       RAIN      66  60  81 SE8       30.18R
EAGLE          CLOUDY    73  45  35 NE13G18   30.19R
RIFLE          CLOUDY    78  51  38 NE14G21   30.09R
DELTA          LGT RAIN  74  61  63 E5        30.12S
NUCLA          NOT AVBL
$$

COZ017>023-064>068-030100-
...SOUTHWEST COLORADO...

CITY           SKY/WX    TMP DP  RH WIND       PRES   REMARKS
DURANGO        PTSUNNY   75  52  44 SW15      30.17R
CORTEZ         CLOUDY    71  58  63 CALM      30.12F
PAGOSA SPRINGS RAIN      59  56  90 N5        30.29S
TELLURIDE      LGT RAIN  56  55  96 CALM      30.39S
WOLF CREEK PAS NOT AVBL
$$

COZ009-010-012-014-032>034-037-058>063-030100-
...CENTRAL COLORADO...

CITY           SKY/WX    TMP DP  RH WIND       PRES   REMARKS
ASPEN          LGT RAIN  56  52  86 SE8       30.34F
BUENA VISTA    CLOUDY    67  42  40 CALM      30.32R
COPPER MTN     CLOUDY    54  39  58 SW3       30.61F
BERTHOUD PASS  FAIR      46  36  66 E16G23    30.66S
COTTONWOOD PAS LGT RAIN  61  41  48 SE9G22    30.45S
GUNNISON       CLOUDY    63  48  59 N9        30.32R
KREMMLING      CLOUDY    72  39  30 SE12      30.24F
LEADVILLE      CLOUDY    53  45  74 CALM      30.45F
MONARCH PASS   FOG       45  43  93 NE16      30.67F VSB<1/4
SALIDA         CLOUDY    65  54  66 W8        30.34F
SUNLIGHT       RAIN      52  50  93 SE5       30.53R
WILKERSON PASS CLOUDY    48  37  66 NE8       30.59S
$$

COZ069>075-030100-
...SAN LUIS VALLEY/SANGRE DE CRISTO MOUNTAINS...

CITY           SKY/WX    TMP DP  RH WIND       PRES   REMARKS
ALAMOSA        CLOUDY    64  51  62 S3        30.27S
LA VETA PASS   DRIZZLE   54  46  76 MISG      30.47S
SAGUACHE       CLOUDY    63  48  59 NW3       30.28F
$$

COZ035-036-038>040-030100-
...NORTHERN COLORADO FRONT RANGE...

CITY           SKY/WX    TMP DP  RH WIND       PRES   REMARKS
DENVER INTL AP CLOUDY    76  45  33 SW22G29   30.09S
DMNS CITY PARK   N/A     76  44  32 SE13G24   30.08F
AURORA         PTSUNNY   69  51  53 SW12G28   30.10F
FRONT RANGE AP PTSUNNY   75  45  33 W5        30.11S
ERIE MUNI ARPT CLOUDY    76  49  38 SW14G22   30.08S
BOULDER MUN AP CLOUDY    79  46  31 S16G24    30.08F
CENTENNIAL     LGT RAIN  66  55  67 SE13      30.16F
BROOMFIELD     CLOUDY    75  48  38 SW16G24   30.13F
FORT COLLINS   PTSUNNY   86  48  26 S17       30.02S
LONGMONT       PTSUNNY   82  49  32 S14G21    30.08S
$$

COZ041-046-047-076>085-087-088-030100-
...PIKES PEAK/PALMER DIVIDE AND SOUTHERN FOOTHILLS...

CITY           SKY/WX    TMP DP  RH WIND       PRES   REMARKS
COLO. SPRINGS  CLOUDY    83  45  26 NE7       30.15R
A. F. ACADEMY  CLOUDY    72  47  41 N18G26    30.19S
ELLICOTT       CLOUDY   N/A N/A N/A MISG      30.12F
FALCON         CLOUDY    74  48  39 NW9       30.22S
FORT CARSON    CLOUDY    84  45  25 E6        30.10S
LIMON          PTSUNNY   87  40  19 SE13      30.07F
MONUMENT HILL  NOT AVBL
TRINIDAD       LGT RAIN  64  59  83 SW20      30.15S
$$

COZ042>045-048>051-090-091-030100-
...NORTHEAST COLORADO...

CITY           SKY/WX    TMP DP  RH WIND       PRES   REMARKS
GREELEY ARPT   PTSUNNY   90  48  24 SW24G31   30.02S
AKRON          CLOUDY    84  48  28 E10G20    30.03R
BURLINGTON     MOSUNNY   88  50  27 S8        29.99F
WRAY           CLOUDY    93  46  19 S6        29.95S
STERLING       CLOUDY    91  50  24 SE10      29.95F
HOLYOKE        CLOUDY    95  41  15 N3        29.96S
FORT MORGAN    CLOUDY    85  51  31 E6        30.00S
$$

COZ086-089-092>099-030100-
...SOUTHEAST COLORADO...

CITY           SKY/WX    TMP DP  RH WIND       PRES   REMARKS
PUEBLO         PTSUNNY   92  40  16 SE12      29.99S
LA JUNTA       MOSUNNY   93  45  19 E20       29.97S
LAMAR          SUNNY     92  52  25 E14       29.93S
SPRINGFIELD      N/A     85  57  38 E15       30.00R
$$



USA.gov is the U.S. government's official web portal to all federal, state and local government web resources and services.